Dewpoint
12 8 6 7 8 8 8 7 10 10 8 13 20 26 15 23 17 14 29 39 36 30 32 35 48 52 52 53 52 54 54 55 56 56 55 55 55 55 55 55 54 53 52 52 51 51 50 50 49 49 48 48 48 47 46 46 46 46 46 46 45 45 45 45 46 46 47 46 46 45 44 44 44 44 44 44 44 44 44 44 44 40 39 38 37 38 38
15 9 8 8 8 7 6 7 11 12 14 16 16 19 19 17 25 22 24 39 38 33 33 48 51 53 53 53 53 53 54 54 54 55 55 55 55 55 55 55 53 52 52 51 51 50 50 49 49 48 47 46 46 46 46 45 45 45 46 45 44 44 44 45 45 44 44 45 43 44 43 43 43 43 43 44 44 44 43 43 43 42 39 39 37 37 38
14 17 10 6 12 9 7 2 6 8 11 8 10 18 24 27 22 24 26 33 29 28 38 51 52 53 53 53 52 52 53 54 54 54 54 54 55 54 53 53 54 52 51 50 50 49 50 52 50 48 47 46 46 45 45 44 44 44 44 44 44 43 43 43 43 43 43 43 42 42 42 43 43 42 42 44 44 44 44 44 45 44 41 38 38 38 37
17 17 15 13 15 13 13 15 13 11 17 19 18 18 23 22 21 25 27 22 22 26 42 50 52 52 52 51 52 52 53 53 53 53 53 54 54 54 53 54 53 52 51 50 50 50 51 51 48 47 47 47 45 44 44 44 44 44 44 44 43 43 42 42 42 41 42 41 40 41 41 40 41 41 43 43 43 43 44 44 45 45 44 40 39 39 38
16 19 19 18 16 15 13 19 18 17 20 18 18 14 20 26 27 23 23 19 22 36 46 49 49 50 51 51 51 52 52 53 53 53 53 53 52 53 54 53 52 52 51 50 50 52 51 50 47 48 47 44 44 44 44 44 43 44 43 43 41 41 40 40 39 41 39 39 38 39 39 39 41 41 41 41 42 43 43 45 45 44 43 43 41 40 38
15 19 20 21 20 12 11 19 25 20 22 20 20 21 25 26 26 21 21 20 30 43 45 46 49 50 50 51 52 52 52 52 53 53 52 52 53 53 53 52 51 50 50 51 51 52 51 52 50 50 49 46 45 45 44 43 43 42 41 40 40 40 39 39 39 39 38 38 38 39 40 40 41 40 40 41 43 43 43 44 44 45 44 43 41 40 38
16 21 21 16 18 16 34 34 29 24 24 16 13 17 16 18 20 22 20 21 27 40 37 45 47 51 52 51 51 51 51 52 52 53 53 53 53 53 52 50 49 49 50 51 51 52 51 49 50 49 45 45 44 43 43 42 41 41 40 39 40 40 39 38 38 38 38 38 38 39 39 40 41 40 41 42 42 43 43 43 44 44 44 43 42 40 39
15 17 17 16 16 32 33 38 37 37 32 29 31 23 21 15 18 21 21 21 23 39 38 45 46 50 51 49 49 52 51 52 52 53 53 52 52 51 51 50 49 50 51 51 51 51 50 49 49 45 46 44 42 42 42 41 40 39 39 39 39 39 38 37 37 37 37 38 39 39 40 40 40 40 42 41 41 42 42 43 43 43 44 44 43 41 40
14 14 17 17 26 28 29 34 35 31 29 28 27 24 18 24 23 21 19 18 22 44 40 43 46 49 49 49 47 49 51 52 52 54 52 52 51 51 50 50 50 50 51 51 52 51 49 49 48 49 49 49 48 40 38 38 38 38 39 38 37 38 38 37 38 38 38 38 39 39 39 39 39 41 42 42 42 42 42 42 41 41 42 41 41 42 41
20 14 16 17 17 17 21 30 34 35 38 33 35 27 26 33 24 24 24 24 23 44 40 40 43 48 46 44 45 48 50 51 53 52 52 51 51 51 51 50 50 51 52 52 50 50 50 49 49 49 49 48 44 40 37 37 36 36 36 36 37 37 37 37 37 37 37 37 38 39 39 39 41 42 42 43 42 43 42 41 40 39 39 38 39 40 40
15 15 17 18 18 20 25 28 32 35 30 30 31 27 22 28 29 26 23 21 23 25 39 39 41 44 42 43 44 49 50 50 52 51 50 50 50 51 51 51 51 50 50 49 48 48 48 47 47 47 44 42 40 39 37 35 35 35 36 36 37 37 37 37 37 38 38 38 38 39 39 40 41 41 42 42 43 44 44 42 42 40 38 38 38 38 38
16 16 15 17 20 23 30 28 30 28 29 34 31 23 22 29 28 26 26 24 26 26 29 44 46 43 39 41 44 49 50 51 51 50 49 49 50 50 50 50 50 49 48 47 46 46 45 45 44 42 40 38 38 37 36 36 36 36 36 37 37 37 37 38 39 39 40 40 40 39 39 40 40 41 41 41 42 42 43 39 39 40 40 39 39 38 39
17 19 16 18 24 35 39 32 34 30 38 33 26 22 23 41 42 28 28 27 31 32 38 46 44 44 43 41 45 49 50 50 50 50 50 50 50 50 49 49 47 47 46 45 44 43 43 43 41 40 37 37 37 37 37 37 36 37 37 37 37 37 37 37 37 37 38 39 40 40 40 41 41 42 43 44 45 44 42 41 41 41 42 43 42 42 41
15 17 15 17 25 36 35 37 35 36 36 28 24 43 43 44 38 34 27 28 31 34 46 46 45 45 42 44 47 48 50 50 50 49 50 50 50 49 49 49 49 46 45 44 44 43 42 40 39 37 35 36 35 36 36 36 36 36 36 35 36 35 36 36 37 38 39 40 40 41 40 41 41 41 42 43 44 43 42 43 43 43 43 41 41 42 42
17 18 17 15 17 34 42 39 35 37 32 33 42 45 44 43 42 42 33 28 30 32 33 39 43 42 48 48 48 50 50 50 49 49 49 49 48 48 48 47 46 45 44 43 42 41 39 37 35 34 35 35 35 36 36 36 35 34 34 35 35 36 36 37 38 38 39 40 40 40 41 41 41 41 42 42 43 43 43 43 44 44 43 43 43 42 42
14 15 16 19 28 37 42 38 33 38 39 44 47 44 44 45 45 43 40 42 37 31 32 31 39 48 49 49 50 50 50 49 49 49 49 48 48 47 47 47 45 43 42 41 40 38 37 36 35 36 35 35 35 34 33 33 34 35 35 35 35 36 37 37 37 36 35 37 39 40 41 41 40 40 40 40 41 41 41 41 40 40 40 41 41 40 39
18 22 29 37 42 40 37 41 45 41 47 47 46 46 44 45 44 44 43 41 48 45 37 46 49 49 49 48 50 50 49 49 49 48 47 47 47 47 46 45 44 42 40 39 37 36 35 35 35 34 33 33 34 33 33 34 34 34 34 35 37 37 36 35 36 33 35 36 36 37 39 39 39 39 41 42 40 40 42 41 40 39 40 39 39 39 39
28 35 38 42 38 40 42 41 45 46 46 44 46 45 45 45 45 45 49 50 49 47 49 48 48 49 49 50 50 50 49 49 48 47 47 46 46 45 44 43 41 40 38 36 34 34 33 33 33 34 33 33 34 34 34 35 33 34 35 36 36 35 32 32 31 31 33 33 34 37 39 37 38 38 38 37 38 40 41 41 40 40 39 36 36 36 38
27 27 34 38 40 41 41 44 44 47 45 46 45 43 44 45 45 46 48 50 49 49 49 49 48 48 49 49 49 49 49 48 48 47 46 45 44 43 42 41 39 38 36 34 34 33 33 33 33 33 34 34 34 34 34 33 33 34 34 35 34 32 32 31 32 31 33 33 34 37 38 36 36 37 35 36 39 39 39 38 38 40 38 38 36 37 39
25 23 32 37 42 43 42 42 42 39 42 42 42 44 46 46 46 46 47 49 47 49 49 52 47 49 49 49 49 48 47 47 47 45 44 42 42 41 41 39 38 36 35 34 34 34 35 35 35 35 33 33 32 32 32 32 33 33 34 32 30 29 30 31 32 33 35 33 35 34 36 37 37 37 38 38 37 37 36 38 41 38 34 34 33 34 35
25 29 34 39 45 44 39 37 37 41 47 44 43 46 46 45 45 47 46 50 46 46 46 47 47 49 49 48 48 47 47 47 45 44 45 44 41 40 38 37 37 36 35 35 35 35 35 35 35 34 33 33 31 33 33 33 33 32 32 32 32 31 32 33 34 34 34 34 34 35 35 33 34 36 36 36 34 32 35 35 37 39 39 39 38 36 28
22 34 41 42 32 34 41 44 42 45 46 46 45 45 46 45 45 45 45 45 46 47 49 48 48 49 48 48 48 47 47 46 44 42 41 42 40 38 37 37 37 36 36 35 35 35 35 35 34 33 32 32 33 31 31 30 31 32 33 32 32 32 32 32 32 33 34 33 33 36 34 33 32 34 31 34 35 31 34 34 34 33 34 36 37 37 35
35 42 45 45 44 44 46 47 45 46 45 46 45 46 45 45 44 44 43 44 46 47 49 48 46 48 48 48 47 47 46 45 44 42 41 39 38 37 37 36 36 35 36 36 36 35 34 34 33 32 32 32 33 32 31 31 31 32 32 31 30 31 32 31 31 33 34 35 36 35 34 33 32 29 29 31 33 33 33 34 34 34 34 34 34 33 37
43 45 44 48 47 44 46 46 45 43 46 45 45 45 45 45 44 43 44 44 46 45 46 48 47 48 47 46 46 46 45 45 45 43 41 40 38 38 37 37 36 36 36 36 35 35 34 34 32 32 32 31 32 30 30 31 31 32 31 31 31 31 30 31 33 36 34 34 34 34 32 30 28 29 28 30 32 34 34 34 34 34 34 33 33 33 34
43 43 44 46 49 46 45 45 45 45 44 45 48 45 45 43 42 43 43 45 46 45 45 45 48 47 47 46 46 45 45 44 44 42 41 40 39 38 38 37 36 36 36 36 35 35 34 33 32 32 31 31 31 30 31 30 30 31 31 32 33 31 30 32 33 32 31 30 30 31 31 29 30 28 26 27 28 29 36 34 34 34 34 34 34 33 32
43 43 42 42 44 44 45 42 43 44 44 44 45 44 45 46 48 43 43 44 46 46 45 46 47 47 46 46 46 45 44 43 42 41 41 41 40 40 38 37 38 38 38 37 36 35 33 31 32 31 30 30 31 32 31 32 32 33 33 33 32 31 32 34 32 32 31 32 31 31 31 29 28 27 26 30 29 30 30 30 34 35 33 34 34 34 34
42 43 44 44 43 44 45 45 43 43 44 44 44 44 44 44 45 44 44 45 45 46 46 47 47 46 46 46 45 45 44 42 41 42 42 42 42 41 40 40 43 43 41 37 36 34 32 32 31 30 31 32 32 32 31 31 33 33 34 33 31 31 31 32 33 33 33 33 32 32 32 32 31 31 33 32 32 32 31 30 31 30 30 32 33 34 33
40 42 44 44 42 43 44 43 43 43 43 44 44 43 42 42 43 44 43 44 44 46 47 48 47 46 45 45 44 44 43 42 42 42 42 42 41 40 39 39 40 41 37 37 35 34 33 31 31 31 31 33 32 32 31 32 34 34 33 33 32 31 36 37 34 34 34 35 34 35 34 35 35 34 34 33 33 33 33 33 33 32 31 31 31 33 34
41 41 42 42 42 42 44 44 43 42 43 44 43 43 43 43 44 44 43 44 45 45 46 48 47 47 46 44 44 43 42 42 42 42 41 41 40 40 40 41 42 38 36 36 34 33 32 30 30 31 32 33 32 31 31 32 34 34 33 33 30 31 33 34 33 34 35 34 35 35 33 32 33 33 32 34 31 32 30 32 33 34 33 33 33 35 33
41 42 41 42 43 42 41 41 42 42 42 42 42 42 43 44 43 43 43 43 45 45 46 47 47 47 46 44 44 43 42 42 43 42 42 41 40 40 39 38 38 37 36 35 33 33 32 31 32 32 33 33 32 32 32 35 34 34 36 35 32 32 33 34 35 37 37 36 37 30 35 33 37 33 29 30 34 34 29 35 34 34 36 34 34 32 31
40 41 41 41 41 40 38 39 40 40 41 41 42 42 42 43 43 44 44 44 43 44 44 44 45 45 45 44 44 44 43 44 45 46 46 45 41 43 44 40 37 35 35 33 33 33 32 32 32 32 33 32 31 32 34 35 34 35 35 32 32 31 32 32 33 34 34 33 32 32 35 33 33 31 30 31 31 35 35 25 30 30 28 35 33 32 33
39 39 40 39 38 38 38 39 39 39 40 42 42 42 42 43 43 43 44 44 44 44 44 44 45 45 45 44 44 45 45 46 46 45 46 46 46 46 42 40 38 38 38 35 34 33 32 32 32 33 33 32 32 33 36 35 35 35 33 30 29 32 34 32 33 34 34 34 33 32 33 33 33 32 33 35 30 34 34 31 29 27 31 31 35 37 36
37 36 37 37 37 36 37 38 39 39 40 40 42 43 43 43 43 43 44 44 44 44 44 44 45 46 46 45 45 45 45 45 45 45 45 44 44 44 44 47 44 39 39 37 34 33 33 33 33 34 32 32 33 33 36 37 36 34 32 30 30 33 33 33 31 33 33 33 33 33 29 31 37 33 31 35 35 31 36 34 36 33 34 33 35 35 32
38 39 39 39 39 38 38 38 39 39 40 42 42 42 43 43 43 43 43 42 42 43 43 44 45 45 45 44 44 44 44 44 43 43 42 42 41 43 45 46 43 43 44 40 34 34 33 34 33 33 33 33 34 35 35 35 35 33 32 30 31 33 34 35 34 32 32 28 27 30 30 28 33 33 31 29 29 33 30 33 29 30 33 31 30 35 28
37 38 39 39 39 39 39 39 39 39 40 41 42 42 43 43 43 44 43 42 42 42 44 45 44 44 44 44 43 44 43 42 38 37 37 38 41 43 44 43 43 42 41 37 36 36 36 34 34 33 34 35 36 37 37 36 36 33 33 32 32 32 33 34 32 32 31 31 27 28 32 30 34 32 37 31 32 34 36 33 32 30 32 32 30 31 26
38 38 38 39 39 39 40 40 40 40 41 41 42 42 42 43 42 42 42 42 42 43 43 44 44 44 44 43 43 41 39 37 37 37 37 38 41 44 44 43 43 43 43 41 40 40 36 35 32 32 35 35 35 37 37 37 36 35 35 33 32 30 28 31 32 32 33 32 32 30 32 33 33 31 33 36 39 35 31 31 31 34 32 32 30 31 31
38 39 39 39 40 40 40 40 41 41 42 41 42 42 42 42 42 43 43 43 43 43 43 44 44 43 43 43 43 41 39 38 38 38 38 40 44 44 43 43 42 43 44 43 44 41 36 35 32 32 34 34 35 36 38 34 38 34 34 34 32 28 25 30 32 31 32 32 31 34 31 31 33 32 31 32 31 31 35 35 29 28 28 27 27 26 27
39 39 39 39 40 41 41 41 42 42 42 42 41 41 41 41 42 42 42 43 43 43 44 44 44 44 43 42 41 41 40 39 38 40 41 43 44 43 43 43 43 43 42 43 41 38 37 34 32 34 34 35 37 36 36 32 34 32 30 32 29 27 26 27 28 28 29 32 32 33 32 32 31 32 31 30 31 33 32 30 31 31 30 29 27 27 27
38 39 40 40 40 40 41 41 42 42 42 41 41 41 41 41 41 42 42 42 42 43 43 43 43 42 42 41 41 41 41 40 41 42 43 43 44 44 43 45 44 44 41 41 45 39 36 33 34 35 36 36 37 37 34 32 31 39 28 33 34 29 28 28 27 27 28 29 29 31 31 30 31 32 31 31 31 29 27 30 32 30 33 33 35 32 28
38 38 39 40 39 39 40 41 42 42 42 41 41 41 41 41 41 41 41 41 42 42 42 42 41 40 40 40 40 41 41 41 42 43 43 44 44 43 44 45 46 46 46 39 44 38 33 32 35 37 34 35 35 35 33 32 31 35 31 32 33 30 29 30 30 28 29 30 30 28 30 30 31 29 29 30 30 28 28 27 27 28 31 34 35 33 30
37 38 39 39 39 39 40 41 41 41 41 41 41 42 41 41 41 41 41 41 41 41 41 41 40 40 40 40 41 42 42 43 43 44 44 44 43 42 41 42 46 47 47 46 44 37 34 35 37 33 33 31 32 32 32 32 33 35 35 32 32 31 30 29 30 30 29 29 29 28 29 30 30 29 29 29 29 32 31 30 30 29 29 28 27 27 27
38 38 38 39 39 39 39 40 40 40 41 41 41 41 41 41 41 41 41 41 41 41 40 40 38 39 40 40 40 41 42 43 43 44 44 43 43 42 41 43 47 48 40 39 36 36 38 39 36 31 34 31 33 32 31 31 33 33 33 31 31 31 31 30 30 31 31 29 28 29 30 29 29 30 29 29 29 31 31 33 34 33 31 30 29 29 31
38 38 38 39 39 39 40 40 40 40 40 41 41 41 41 41 41 40 40 40 41 40 41 40 39 38 39 40 41 41 42 42 42 42 42 44 45 46 44 43 44 41 35 39 38 38 39 35 33 33 32 34 34 31 31 32 31 32 32 33 32 30 30 30 29 29 30 31 31 29 29 29 29 29 29 29 27 28 28 30 29 29 28 31 33 33 34
39 39 39 39 39 39 39 40 40 40 40 40 41 41 41 41 40 40 40 40 40 39 40 40 40 40 40 41 41 41 42 42 42 42 41 42 42 44 46 47 44 39 35 38 39 37 36 34 33 32 30 32 32 31 32 31 30 30 31 31 35 35 31 32 31 29 29 30 36 32 31 30 32 29 29 28 28 28 29 29 29 29 28 29 31 30 30
38 38 39 39 39 39 38 38 40 40 40 41 40 41 41 40 40 40 40 39 39 39 38 39 39 39 39 40 40 40 40 40 40 39 37 38 38 39 46 38 44 41 38 36 43 41 37 34 33 32 32 32 31 31 30 29 28 26 26 28 35 36 38 37 32 31 30 30 30 30 31 34 31 31 32 33 34 32 32 31 33 31 32 31 32 33 34
38 39 39 37 38 39 39 39 39 39 40 40 39 39 40 40 39 39 39 39 39 39 39 39 39 39 39 39 39 39 39 39 39 38 37 37 38 39 43 39 44 37 36 35 42 40 33 30 32 32 32 31 30 29 29 28 27 26 28 28 31 31 33 33 36 35 33 32 35 34 34 35 31 31 30 29 30 29 29 29 28 32 32 34 33 32 32
38 39 39 39 39 39 39 39 39 39 39 38 38 39 39 40 40 40 39 39 39 39 39 39 38 38 39 39 39 40 40 40 40 43 42 44 43 40 38 36 36 35 34 34 34 32 33 31 32 32 31 31 31 33 33 31 31 30 29 30 30 30 30 34 33 30 29 30 29 30 29 31 35 33 31 29 30 33 31 33 33 32 34 31 33 31 29
37 37 38 38 39 39 39 39 38 38 38 38 38 39 39 39 39 39 40 39 39 39 39 39 38 38 39 40 41 42 42 40 39 40 44 43 40 39 37 37 35 33 32 31 31 32 32 31 32 32 31 31 31 32 34 32 30 30 30 31 33 30 30 29 32 29 29 29 30 29 28 28 28 28 28 29 36 35 33 31 29 29 28 28 28 28 29
37 37 38 39 39 39 38 38 38 37 38 37 37 37 37 38 39 39 38 38 38 39 39 39 39 39 39 39 40 41 41 40 38 37 39 39 38 37 36 34 33 32 31 31 37 35 31 31 31 32 31 31 31 30 29 30 31 30 30 30 30 29 30 30 29 28 28 30 30 29 29 28 29 28 28 26 26 31 27 28 30 30 30 33 32 29 29
36 37 37 37 38 38 37 36 36 37 35 36 37 37 37 38 37 37 37 37 37 36 38 38 39 39 39 39 39 40 40 40 37 37 36 36 35 34 34 33 33 31 31 31 39 35 31 31 31 31 31 32 31 29 29 29 31 30 29 29 29 27 27 26 25 27 33 36 31 29 29 29 30 28 29 30 31 32 29 29 29 30 29 28 29 29 29
35 35 34 35 36 37 36 36 35 35 35 36 38 37 36 36 36 37 38 38 37 36 37 37 36 37 38 38 38 39 39 38 36 34 34 34 34 33 32 33 34 32 33 33 33 35 32 33 33 32 32 33 31 32 31 31 30 29 31 28 31 27 28 33 28 32 31 29 29 33 37 35 33 35 34 34 32 31 31 32 30 31 32 32 31 31 31
35 35 35 34 34 35 35 33 35 35 36 36 36 36 36 36 35 35 36 35 37 37 37 36 36 36 36 36 36 36 36 36 34 33 33 32 34 34 34 32 33 32 36 36 33 37 33 33 32 31 32 32 31 30 30 28 30 29 29 28 28 34 30 36 30 31 32 32 32 31 30 30 29 30 33 35 30 31 30 29 30 30 29 30 31 31 31